This demonstration page uses our WeatherBlox Daily Observations layout. Learn more.

40.92945, -100.16068

Hourly Observations for October 26, 2019

Temp ( °F °C ) Dew Point ( °F °C ) Humidity (%) Winds ( mph kmh ) Pressure ( in mb ) Visibility ( mi km ) Precip ( " mm )
12:15 am 00:15 Clear 43 6.1 22 -5.5 44 44 S 14 22 30.06 1018 10 16.0934 0 0
12:35 am 00:35 Clear 43 6 22 -5.6 44 44 S 13 20 30.03 1017 10 16.0934 0 0
12:55 am 00:55 Clear 43 6 22 -5.7 43 43 SSW 12 19 30.03 1017 10 16.0934 0 0
1:15 am 01:15 Clear 42 5.6 22 -5.8 44 44 S 7 11 30.03 1017 10 16.0934 0 0
1:35 am 01:35 Clear 41 4.8 22 -5.8 47 47 S 6 9 30.03 1017 10 16.0934 0 0
1:55 am 01:55 Clear 40 4.3 22 -5.8 48 48 S 5 7 30.03 1017 10 16.0934 0 0
2:15 am 02:15 Clear 40 4.5 21 -6 47 47 S 7 11 30 1016 10 16.0934 0 0
2:35 am 02:35 Clear 39 3.9 21 -6 49 49 S 8 13 30 1016 10 16.0934 0 0
2:55 am 02:55 Clear 39 3.7 21 -6 50 50 SSE 7 11 30 1016 10 16.0934 0 0
3:15 am 03:15 Clear 37 2.6 21 -6 53 53 SSE 6 9 30 1016 10 16.0934 0 0
3:35 am 03:35 Clear 37 3 21 -6 52 52 SE 7 11 29.97 1015 10 16.0934 0 0
3:55 am 03:55 Clear 37 3 21 -6 52 52 SSE 8 13 29.97 1015 10 16.0934 0 0
4:15 am 04:15 Clear 37 2.5 21 -6.1 53 53 SSE 9 15 29.97 1015 10 16.0934 0 0
4:35 am 04:35 Clear 36 2.4 21 -6.1 54 54 SSE 7 11 29.97 1015 10 16.0934 0 0
4:55 am 04:55 Clear 36 2.1 21 -6 55 55 SE 5 7 29.97 1015 10 16.0934 0 0
5:15 am 05:15 Clear 35 1.6 21 -6 57 57 SE 6 9 29.94 1014 10 16.0934 0 0
5:35 am 05:35 Clear 35 1.6 21 -6 57 57 SSE 7 11 29.94 1014 10 16.0934 0 0
5:55 am 05:55 Clear 34 1 21 -6 60 60 SE 6 9 29.91 1013 10 16.0934 0 0
6:15 am 06:15 Clear 35 1.4 21 -6 58 58 SSE 7 11 29.91 1013 10 16.0934 0 0
6:35 am 06:35 Clear 34 1 21 -6.1 59 59 S 7 11 29.91 1013 10 16.0934 0 0
6:55 am 06:55 Clear 34 1 21 -6.1 59 59 S 8 13 29.88 1012 10 16.0934 0 0
7:15 am 07:15 Clear 33 0.5 21 -6.3 61 61 Calm 29.88 1012 10 16.0934 0 0
7:35 am 07:35 Clear 33 0.7 20 -6.4 59 59 Calm 29.88 1012 10 16.0934 0 0
7:55 am 07:55 Clear 33 0.7 20 -6.6 59 59 SSW 3 6 29.85 1011 10 16.0934 0 0
8:15 am 08:15 Sunny 33 0.7 20 -6.5 59 59 S 8 13 29.85 1011 10 16.0934 0 0
8:35 am 08:35 Sunny 34 1 21 -6 60 60 S 6 9 29.85 1011 10 16.0934 0 0
8:55 am 08:55 Sunny 36 2 22 -5.7 57 57 S 5 7 29.83 1010 10 16.0934 0 0
9:15 am 09:15 Sunny 37 2.6 22 -5.4 56 56 S 5 7 29.83 1010 10 16.0934 0 0
9:35 am 09:35 Sunny 38 3.4 23 -5 55 55 SSE 5 7 29.83 1010 10 16.0934 0 0
9:55 am 09:55 Sunny 40 4.4 24 -4.7 52 52 SSE 5 7 29.83 1010 10 16.0934 0 0
10:15 am 10:15 Sunny 42 5.7 25 -3.8 51 51 S 3 6 29.8 1009 10 16.0934 0 0
10:35 am 10:35 Sunny 45 7 26 -3.2 49 49 SSW 6 9 29.77 1008 10 16.0934 0 0
10:55 am 10:55 Sunny 47 8.3 27 -2.7 46 46 SSW 7 11 29.74 1007 10 16.0934 0 0
11:15 am 11:15 Sunny 49 9.5 28 -2 45 45 SW 7 11 29.74 1007 10 16.0934 0 0
11:35 am 11:35 Sunny 51 10.8 29 -1.5 43 43 S 8 13 29.71 1006 10 16.0934 0 0
11:55 am 11:55 Sunny 54 12.3 30 -1.1 40 40 SSW 10 17 29.68 1005 10 16.0934 0 0
12:15 pm 12:15 Sunny 58 14.4 31 -0.6 36 36 S 8 13 29.65 1004 10 16.0934 0 0
12:35 pm 12:35 Sunny 61 16.2 31 -0.4 32 32 SSW 15 24 29.65 1004 10 16.0934 0 0
12:55 pm 12:55 Sunny 63 17.3 31 -0.3 30 30 SW 16 26 29.62 1003 10 16.0934 0 0
1:15 pm 13:15 Sunny 64 18 32 -0.1 30 30 SSW 17 28 29.62 1003 10 16.0934 0 0
1:35 pm 13:35 Sunny 65 18.5 32 0 29 29 SW 17 28 29.59 1002 10 16.0934 0 0
1:55 pm 13:55 Sunny 67 19.4 32 0 27 27 SW 16 26 29.59 1002 10 16.0934 0 0
2:15 pm 14:15 Sunny 69 20.3 32 0.2 26 26 SSW 13 20 29.53 1000 10 16.0934 0 0
2:35 pm 14:35 Sunny 71 21.8 33 0.4 24 24 SSW 14 22 29.53 1000 10 16.0934 0 0
2:55 pm 14:55 Sunny 73 22.5 33 0.7 24 24 SW 15 24 29.53 1000 10 16.0934 0 0
3:15 pm 15:15 Sunny 73 22.9 34 0.9 23 23 W 9 15 29.53 1000 10 16.0934 0 0
3:35 pm 15:35 Sunny 73 22.9 33 0.8 23 23 WNW 12 19 29.47 998 10 16.0934 0 0
3:55 pm 15:55 Sunny 74 23.1 34 0.9 23 23 W 10 17 29.53 1000 10 16.0934 0 0
4:15 pm 16:15 Sunny 73 23 34 1.1 24 24 W 12 19 29.53 1000 10 16.0934 0 0
4:35 pm 16:35 Sunny 73 22.6 33 0.8 24 24 WNW 5 7 29.53 1000 10 16.0934 0 0
4:55 pm 16:55 Sunny 73 22.7 34 1 24 24 Calm 29.53 1000 10 16.0934 0 0
5:15 pm 17:15 Sunny 73 22.6 35 1.5 25 25 NW 6 9 29.53 1000 10 16.0934 0 0
5:35 pm 17:35 Sunny 65 18.2 37 2.8 36 36 N 29 46 29.59 1002 10 16.0934 0 0
5:55 pm 17:55 Sunny 62 16.4 39 3.7 43 43 N 24 39 29.65 1004 10 16.0934 0 0
6:15 pm 18:15 Sunny 59 15.1 38 3.6 46 46 N 18 30 29.65 1004 10 16.0934 0 0
6:35 pm 18:35 Sunny 57 13.9 38 3.5 50 50 N 22 35 29.65 1004 10 16.0934 0 0
6:55 pm 18:55 Clear 55 13 38 3.3 52 52 N 21 33 29.68 1005 10 16.0934 0 0
7:15 pm 19:15 Clear 54 12 37 3 54 54 N 17 28 29.68 1005 10 16.0934 0 0
7:35 pm 19:35 Clear 51 10.8 37 2.5 57 57 N 17 28 29.68 1005 10 16.0934 0 0
7:55 pm 19:55 Clear 49 9.6 35 1.8 59 59 N 21 33 29.71 1006 10 16.0934 0 0
8:15 pm 20:15 Clear 48 9 35 1.6 60 60 N 6 9 29.77 1008 10 16.0934 0 0
8:35 pm 20:35 Clear 47 8.1 34 1.3 63 63 NNE 9 15 29.77 1008 10 16.0934 0 0
8:55 pm 20:55 Clear 46 7.7 34 1.2 64 64 N 12 19 29.77 1008 10 16.0934 0 0
9:15 pm 21:15 Clear 45 7 33 0.7 65 65 N 12 19 29.83 1010 10 16.0934 0 0
9:35 pm 21:35 Clear 44 6.6 33 0.5 65 65 N 13 20 29.83 1010 10 16.0934 0 0
9:55 pm 21:55 Clear 43 6.2 32 0.2 66 66 N 10 17 29.83 1010 10 16.0934 0 0
10:15 pm 22:15 Clear 42 5.4 32 0.1 69 69 N 7 11 29.85 1011 10 16.0934 0 0
10:35 pm 22:35 Clear 42 5.4 32 0.1 69 69 N 12 19 29.85 1011 10 16.0934 0 0
10:55 pm 22:55 Clear 41 5.2 32 0 69 69 N 14 22 29.85 1011 10 16.0934 0 0
11:15 pm 23:15 Clear 41 5.1 32 0 70 70 N 14 22 29.85 1011 10 16.0934 0 0
11:35 pm 23:35 Clear 40 4.5 32 -0.1 72 72 N 16 26 29.91 1013 10 16.0934 0 0
11:50 pm 23:50 Clear 39 4.1 32 -0.2 74 74 N 13 20 29.91 1013 10 16.0934 0 0

Powered by AerisWeather